Nogales, AZ

11:44 PM MST on May 26, 2017 (GMT -0700)
Nogales International

Weather History for KOLS - December, 2012

Change the Weather History Date:

Thursday, December 13, 2012

  Actual Average (KFHU) Record (KFHU)
Temperature  
Mean Temperature 52 °F -  
Max Temperature 61 °F 58 °F 73 °F (1996)
Min Temperature 44 °F 36 °F 19 °F (1989)
Degree Days  
Heating Degree Days 12    
Growing Degree Days 2 (Base 50)    
Moisture  
Dew Point 37 °F    
Average Humidity 61    
Maximum Humidity 92    
Minimum Humidity 31    
Precipitation  
Precipitation 0.29 in - - ()
Sea Level Pressure  
Sea Level Pressure 29.82 in    
Wind  
Wind Speed 10 mph (South)    
Max Wind Speed 23 mph    
Max Gust Speed 36 mph    
Visibility 9 miles    
Events Rain    
Averages and records for this station are not official NWS values.
T = Trace of Precipitation, MM = Missing Value Source: NWS Daily Summary

Daily Weather History Graph

Daily Weather History Graph

Search for Another Location

Airport or City:

Trip Planner

Search our weather history database for the weather conditions in past years. The results will help you decide how hot, cold, wet, or windy it might be!

Date:

Astronomy

Dec. 13, 2012 Rise Set
Actual Time 7:14 AM MST 5:21 PM MST
Civil Twilight 6:47 AM MST 5:48 PM MST
Nautical Twilight 6:17 AM MST 6:18 PM MST
Astronomical Twilight 5:47 AM MST 6:48 PM MST
Moon 7:27 AM MST (12/13) 6:06 PM MST (12/13)
Length of Visible Light 11h 01m
Length of Day
10h 07m
New Moon, 0% of the Moon is Illuminated
Dec 13
New Moon
Dec 19
First Quarter
Dec 28
Full
Jan 4
Last Quarter
Jan 11
New

Hourly Weather History & Observations

Time (MST) Temp. Windchill Dew Point Humidity Pressure Visibility Wind Dir Wind Speed Gust Speed Precip Events Conditions
12:54 AM 45.0 °F 43.5 °F 19.9 °F 37% 29.91 in 10.0 mi Variable 3.5 mph - N/A   Clear
1:54 AM 46.9 °F - 19.9 °F 34% 29.89 in 10.0 mi South 3.5 mph - N/A   Clear
2:54 AM 45.0 °F 41.8 °F 21.0 °F 39% 29.88 in 10.0 mi South 5.8 mph - N/A   Clear
3:54 AM 46.0 °F 41.4 °F 21.9 °F 39% 29.87 in 10.0 mi SSE 9.2 mph - N/A   Clear
4:54 AM 45.0 °F 41.2 °F 23.0 °F 42% 29.86 in 10.0 mi SSE 6.9 mph - N/A   Clear
5:54 AM 44.1 °F 41.5 °F 25.0 °F 47% 29.88 in 10.0 mi SSE 4.6 mph - N/A   Clear
6:54 AM 45.0 °F 40.6 °F 27.0 °F 49% 29.92 in 10.0 mi SE 8.1 mph - N/A   Clear
7:54 AM 44.1 °F - 24.1 °F 45% 29.94 in 10.0 mi Calm Calm - N/A   Clear
8:54 AM 52.0 °F - 27.0 °F 38% 29.92 in 10.0 mi South 6.9 mph - N/A   Clear
9:54 AM 60.1 °F - 28.9 °F 31% 29.92 in 10.0 mi SSE 17.3 mph - N/A   Unknown
10:54 AM 61.0 °F - 34.0 °F 36% 29.89 in 10.0 mi South 17.3 mph 31.1 mph N/A   Partly Cloudy
11:54 AM 61.0 °F - 37.9 °F 42% 29.88 in 10.0 mi South 21.9 mph 35.7 mph N/A   Mostly Cloudy
12:54 PM 60.1 °F - 37.0 °F 42% 29.86 in 10.0 mi SSW 23.0 mph 34.5 mph N/A   Overcast
1:54 PM 61.0 °F - 37.0 °F 41% 29.83 in 10.0 mi South 20.7 mph 28.8 mph N/A   Mostly Cloudy
2:54 PM 61.0 °F - 37.0 °F 41% 29.82 in 10.0 mi South 19.6 mph 26.5 mph N/A   Overcast
5:54 PM 55.4 °F - 41.0 °F 58% 29.86 in 10.0 mi South 8.1 mph - N/A Rain Light Rain
6:54 PM 52.0 °F - 46.0 °F 80% 29.77 in 10.0 mi SE 17.3 mph 27.6 mph 0.00 in Rain Light Rain
7:54 PM 51.1 °F - 46.0 °F 83% 29.76 in 6.0 mi SSE 11.5 mph - 0.07 in Rain Rain
8:54 PM 51.1 °F - 46.9 °F 86% 29.71 in 9.0 mi SSE 15.0 mph 24.2 mph 0.04 in Rain Light Rain
9:54 PM 52.0 °F - 46.9 °F 83% 29.68 in 8.0 mi South 19.6 mph 25.3 mph 0.02 in Rain Light Rain
10:01 PM 52.0 °F - 48.0 °F 86% 29.77 in 4.0 mi SSE 20.7 mph 34.5 mph 0.03 in Rain Rain
10:10 PM 51.1 °F - 48.0 °F 89% 29.79 in 6.0 mi South 17.3 mph 26.5 mph 0.04 in Rain Light Rain
10:17 PM 51.1 °F - 48.0 °F 89% 29.79 in 3.0 mi South 12.7 mph 24.2 mph 0.07 in Rain Heavy Rain
10:39 PM 51.1 °F - 48.0 °F 89% 29.79 in 10.0 mi South 11.5 mph 20.7 mph 0.08 in Rain Light Rain
10:47 PM 51.1 °F - 48.9 °F 92% 29.79 in 2.5 mi South 15.0 mph - 0.14 in Rain Heavy Rain
10:54 PM 51.1 °F - 48.0 °F 89% 29.68 in 3.0 mi South 17.3 mph - 0.15 in Rain Rain
11:33 PM 52.0 °F - 48.0 °F 86% 29.77 in 10.0 mi SSW 19.6 mph 25.3 mph 0.00 in Rain Light Rain
11:54 PM 52.0 °F - 46.9 °F 83% 29.64 in 10.0 mi SSW 20.7 mph 28.8 mph 0.01 in Rain Light Rain